Clinton, IA

1:56 PM CST on February 18, 2018 (GMT -0600)
Clinton Municipal

Weather History for KCWI - May, 2014

Change the Weather History Date:

Sunday, May 11, 2014

  Actual Average Record
Temperature  
Mean Temperature 68 °F -  
Max Temperature 80 °F 73 °F 91 °F (2011)
Min Temperature 55 °F 51 °F 32 °F (1966)
Cooling Degree Days 2    
Growing Degree Days 18 (Base 50)    
Moisture  
Dew Point 55 °F    
Average Humidity 68    
Maximum Humidity 83    
Minimum Humidity 45    
Precipitation  
Precipitation 0.05 in - - ()
Sea Level Pressure  
Sea Level Pressure 29.88 in    
Wind  
Wind Speed 10 mph (SSE)    
Max Wind Speed 20 mph    
Max Gust Speed 25 mph    
Visibility 10 miles    
Events      
Averages and records for this station are not official NWS values.
T = Trace of Precipitation, MM = Missing Value Source: NWS Daily Summary

Daily Weather History Graph

Daily Weather History Graph

Search for Another Location

Airport or City:

Trip Planner

Search our weather history database for the weather conditions in past years. The results will help you decide how hot, cold, wet, or windy it might be!

Date:

Astronomy

May. 11, 2014 Rise Set
Actual Time 5:45 AM CDT 8:10 PM CDT
Civil Twilight 5:14 AM CDT 8:42 PM CDT
Nautical Twilight 4:35 AM CDT 9:21 PM CDT
Astronomical Twilight 3:51 AM CDT 10:04 PM CDT
Moon 5:03 PM CDT (5/11) 3:53 AM CDT (5/11)
Length of Visible Light 15h 27m
Length of Day
14h 25m
Waxing Gibbous, 89% of the Moon is Illuminated
May 11
Waxing Gibbous
May 14
Full
May 21
Last Quarter
May 28
New
Jun 5
First Quarter

Hourly Weather History & Observations

Time (CDT) Temp. Heat Index Dew Point Humidity Pressure Visibility Wind Dir Wind Speed Gust Speed Precip Events Conditions
12:15 AM 64.4 °F - 42.8 °F 45% 29.89 in 10.0 mi SSE 11.5 mph - N/A   Partly Cloudy
12:35 AM 62.6 °F - 42.8 °F 48% 29.89 in 10.0 mi SSE 11.5 mph - N/A   Clear
12:55 AM 62.6 °F - 42.8 °F 48% 29.89 in 10.0 mi SSE 6.9 mph - N/A   Clear
1:15 AM 57.2 °F - 42.8 °F 59% 29.90 in 10.0 mi SE 6.9 mph - N/A   Clear
1:35 AM 59.0 °F - 44.6 °F 59% 29.90 in 10.0 mi SE 9.2 mph - N/A   Partly Cloudy
1:55 AM 62.6 °F - 44.6 °F 52% 29.91 in 10.0 mi SSE 10.4 mph - N/A   Scattered Clouds
2:15 AM 62.6 °F - 44.6 °F 52% 29.91 in 10.0 mi SSE 9.2 mph - N/A   Clear
2:35 AM 60.8 °F - 46.4 °F 59% 29.91 in 10.0 mi SSE 9.2 mph - N/A   Clear
2:55 AM 59.0 °F - 46.4 °F 63% 29.90 in 10.0 mi SE 9.2 mph - N/A   Clear
3:15 AM 59.0 °F - 46.4 °F 63% 29.90 in 10.0 mi SSE 9.2 mph - N/A   Clear
3:35 AM 59.0 °F - 46.4 °F 63% 29.90 in 10.0 mi SE 8.1 mph - N/A   Clear
3:55 AM 57.2 °F - 46.4 °F 67% 29.90 in 10.0 mi SE 9.2 mph - N/A   Clear
4:15 AM 57.2 °F - 46.4 °F 67% 29.90 in 10.0 mi SSE 9.2 mph - N/A   Clear
4:35 AM 57.2 °F - 46.4 °F 67% 29.90 in 10.0 mi SE 9.2 mph - N/A   Clear
4:55 AM 55.4 °F - 46.4 °F 72% 29.91 in 10.0 mi SE 6.9 mph - N/A   Clear
5:15 AM 55.4 °F - 48.2 °F 77% 29.91 in 10.0 mi SE 8.1 mph - N/A   Clear
5:35 AM 55.4 °F - 48.2 °F 77% 29.90 in 10.0 mi SE 8.1 mph - N/A   Clear
5:55 AM 57.2 °F - 50.0 °F 77% 29.90 in 10.0 mi SE 8.1 mph - N/A   Clear
6:15 AM 57.2 °F - 51.8 °F 82% 29.90 in 10.0 mi SE 9.2 mph - N/A   Clear
6:35 AM 57.2 °F - 50.0 °F 77% 29.90 in 10.0 mi ESE 5.8 mph - N/A   Clear
6:55 AM 60.8 °F - 53.6 °F 77% 29.91 in 10.0 mi SE 8.1 mph - N/A   Clear
7:15 AM 60.8 °F - 53.6 °F 77% 29.92 in 10.0 mi SE 6.9 mph - N/A   Clear
7:35 AM 62.6 °F - 53.6 °F 72% 29.92 in 10.0 mi SE 6.9 mph - N/A   Clear
7:55 AM 62.6 °F - 53.6 °F 72% 29.92 in 10.0 mi SSE 10.4 mph - N/A   Clear
8:15 AM 64.4 °F - 55.4 °F 73% 29.92 in 10.0 mi SSE 8.1 mph - N/A   Clear
8:35 AM 66.2 °F - 55.4 °F 68% 29.93 in 10.0 mi SSE 8.1 mph - N/A   Clear
8:55 AM 66.2 °F - 55.4 °F 68% 29.93 in 10.0 mi South 10.4 mph - N/A   Clear
9:15 AM 68.0 °F - 55.4 °F 64% 29.93 in 10.0 mi South 9.2 mph - N/A   Clear
9:35 AM 69.8 °F - 57.2 °F 64% 29.93 in 10.0 mi South 10.4 mph - N/A   Clear
9:55 AM 71.6 °F - 57.2 °F 60% 29.92 in 10.0 mi South 9.2 mph - N/A   Clear
10:15 AM 71.6 °F - 57.2 °F 60% 29.92 in 10.0 mi SSW 11.5 mph - N/A   Clear
10:35 AM 73.4 °F - 59.0 °F 61% 29.92 in 10.0 mi SSW 13.8 mph 18.4 mph N/A   Clear
10:55 AM 73.4 °F - 59.0 °F 61% 29.91 in 10.0 mi SW 12.7 mph - N/A   Clear
11:15 AM 75.2 °F - 60.8 °F 61% 29.91 in 10.0 mi South 11.5 mph - N/A   Clear
11:35 AM 78.8 °F - 60.8 °F 54% 29.91 in 10.0 mi SW 10.4 mph 18.4 mph N/A   Clear
11:55 AM 80.6 °F 81.5 °F 60.8 °F 51% 29.92 in 10.0 mi SW 16.1 mph 21.9 mph N/A   Scattered Clouds
12:15 PM 80.6 °F 81.8 °F 62.6 °F 54% 29.91 in 10.0 mi SW 17.3 mph 23.0 mph N/A   Mostly Cloudy
12:35 PM 80.6 °F 81.8 °F 62.6 °F 54% 29.91 in 10.0 mi SSW 11.5 mph - N/A   Mostly Cloudy
12:55 PM 78.8 °F - 62.6 °F 57% 29.90 in 10.0 mi SW 10.4 mph 18.4 mph N/A   Scattered Clouds
1:15 PM 78.8 °F - 62.6 °F 57% 29.90 in 10.0 mi SSW 11.5 mph - N/A   Clear
1:35 PM 78.8 °F - 62.6 °F 57% 29.90 in 10.0 mi SW 13.8 mph - N/A   Clear
1:55 PM 78.8 °F - 62.6 °F 57% 29.91 in 10.0 mi WSW 13.8 mph - N/A   Clear
2:15 PM 78.8 °F - 62.6 °F 57% 29.90 in 10.0 mi SW 11.5 mph - N/A   Clear
2:35 PM 78.8 °F - 62.6 °F 57% 29.92 in 10.0 mi WSW 11.5 mph - N/A   Clear
2:55 PM 77.0 °F - 64.4 °F 65% 29.91 in 10.0 mi West 6.9 mph - N/A   Clear
3:15 PM 73.4 °F - 66.2 °F 78% 29.92 in 10.0 mi WNW 11.5 mph - N/A   Clear
3:55 PM 69.8 °F - 62.6 °F 78% 29.92 in 10.0 mi NW 16.1 mph - 0.01 in   Scattered Clouds
4:15 PM 69.8 °F - 62.6 °F 78% 29.88 in 10.0 mi WNW 10.4 mph - 0.02 in   Overcast
4:35 PM 69.8 °F - 60.8 °F 73% 29.85 in 10.0 mi WNW 11.5 mph 20.7 mph 0.04 in   Mostly Cloudy
4:55 PM 69.8 °F - 60.8 °F 73% 29.88 in 10.0 mi SSW 16.1 mph 20.7 mph 0.04 in   Partly Cloudy
5:15 PM 68.0 °F - 62.6 °F 83% 29.81 in 10.0 mi SSE 19.6 mph - N/A   Scattered Clouds
5:35 PM 69.8 °F - 62.6 °F 78% 29.78 in 10.0 mi SSE 19.6 mph 25.3 mph N/A   Clear
5:55 PM 69.8 °F - 62.6 °F 78% 29.80 in 10.0 mi SSE 9.2 mph - N/A   Partly Cloudy
6:15 PM 69.8 °F - 55.4 °F 60% 29.81 in 10.0 mi SSE 15.0 mph 18.4 mph N/A   Mostly Cloudy
6:35 PM 69.8 °F - 55.4 °F 60% 29.79 in 10.0 mi SSE 16.1 mph - N/A   Scattered Clouds
6:55 PM 68.0 °F - 57.2 °F 68% 29.77 in 10.0 mi SE 13.8 mph - N/A   Scattered Clouds
7:15 PM 68.0 °F - 59.0 °F 73% 29.77 in 10.0 mi NE 9.2 mph - N/A   Partly Cloudy
7:35 PM 68.0 °F - 60.8 °F 78% 29.77 in 10.0 mi NNE 9.2 mph - N/A   Clear
7:55 PM 66.2 °F - 59.0 °F 78% 29.80 in 10.0 mi NNE 4.6 mph - N/A   Clear
8:15 PM 64.4 °F - 57.2 °F 77% 29.81 in 10.0 mi Calm Calm - N/A   Clear
8:35 PM 64.4 °F - 57.2 °F 77% 29.82 in 10.0 mi North 4.6 mph - N/A   Clear
8:55 PM 62.6 °F - 57.2 °F 82% 29.83 in 10.0 mi NNE 3.5 mph - N/A   Clear
9:15 PM 62.6 °F - 57.2 °F 82% 29.84 in 10.0 mi NNE 10.4 mph - N/A   Clear
9:35 PM 62.6 °F - 57.2 °F 82% 29.84 in 10.0 mi NE 9.2 mph - N/A   Clear
9:55 PM 62.6 °F - 57.2 °F 82% 29.85 in 10.0 mi ENE 9.2 mph - N/A   Clear
10:15 PM 62.6 °F - 57.2 °F 82% 29.86 in 10.0 mi ENE 9.2 mph - N/A   Clear
10:35 PM 62.6 °F - 57.2 °F 82% 29.85 in 10.0 mi East 10.4 mph - N/A   Clear
11:15 PM 64.4 °F - 59.0 °F 83% 29.85 in 10.0 mi SE 10.4 mph - N/A   Clear
11:35 PM 64.4 °F - 57.2 °F 77% 29.85 in 10.0 mi ESE 12.7 mph - N/A   Clear
11:55 PM 64.4 °F - 57.2 °F 77% 29.84 in 10.0 mi ESE 12.7 mph - N/A   Clear